AL7BX-WX Weather Reports


Display with metric or nautical units.
time (UTC)temp
F
wind
direction
speed
MPH
gust
MPH
rain 1hr
in
rain 24hr
in
rain mn
in
humidity
%
barometer
mb
20260904222014 82 187 13.0 26.0 0.00 0.00 0.00 26
20260904220903 83 171 11.0 19.0 0.00 0.00 0.00 28
20260904220003 83 175 11.0 19.0 0.00 0.00 0.00 26
20260904215403 83 165 11.0 19.0 0.00 0.00 0.00 28
20260904214503 83 165 13.0 26.0 0.00 0.00 0.00 26
20260904213603 82 174 14.0 30.0 0.00 0.00 0.00 27
20260904212703 82 176 13.0 27.0 0.00 0.00 0.00 28
20260904211803 82 174 13.0 26.0 0.00 0.00 0.00 28
20260904210903 82 172 15.0 29.0 0.00 0.00 0.00 28
20260904210003 82 181 13.0 28.0 0.00 0.00 0.00 29
20260904205403 82 175 13.0 28.0 0.00 0.00 0.00 29
20260904204713 82 176 14.0 31.0 0.00 0.00 0.00 28
20260904203814 82 184 13.0 27.0 0.00 0.00 0.00 29
20260904202703 82 170 14.0 28.0 0.00 0.00 0.00 28
20260904202013 81 175 15.0 27.0 0.00 0.00 0.00 27
20260904200903 81 143 10.0 19.0 0.00 0.00 0.00 29
20260904200003 81 157 11.0 25.0 0.00 0.00 0.00 30
20260904195403 80 154 12.0 25.0 0.00 0.00 0.00 30
20260904194503 80 160 10.0 19.0 0.00 0.00 0.00 32
20260904193603 80 160 10.0 19.0 0.00 0.00 0.00 31
20260904192703 80 161 11.0 22.0 0.00 0.00 0.00 31
20260904191803 80 164 10.0 23.0 0.00 0.00 0.00 32
20260904190903 79 172 14.0 29.0 0.00 0.00 0.00 32
20260904190003 79 165 13.0 26.0 0.00 0.00 0.00 31
20260904185403 78 169 15.0 26.0 0.00 0.00 0.00 32
20260904184714 78 174 14.0 26.0 0.00 0.00 0.00 31
20260904183603 78 179 14.0 28.0 0.00 0.00 0.00 32
20260904182703 77 182 13.0 29.0 0.00 0.00 0.00 33
20260904181803 76 184 14.0 26.0 0.00 0.00 0.00 35
20260904180903 77 162 13.0 32.0 0.00 0.00 0.00 34
20260904180213 77 172 13.0 29.0 0.00 0.00 0.00 33
20260904175403 76 167 15.0 29.0 0.00 0.00 0.00 34
20260904174503 76 174 15.0 26.0 0.00 0.00 0.00 34
20260904173603 75 175 14.0 26.0 0.00 0.00 0.00 34
20260904172703 75 170 14.0 33.0 0.00 0.00 0.00 34
20260904171803 75 167 15.0 26.0 0.00 0.00 0.00 34
20260904170903 75 165 14.0 29.0 0.00 0.00 0.00 35
20260904170003 75 153 11.0 22.0 0.00 0.00 0.00 34
20260904165403 74 159 12.0 22.0 0.00 0.00 0.00 34
20260904164503 74 151 12.0 22.0 0.00 0.00 0.00 34
20260904163603 74 148 11.0 24.0 0.00 0.00 0.00 35
20260904162703 73 151 12.0 23.0 0.00 0.00 0.00 35
20260904161803 73 151 13.0 25.0 0.00 0.00 0.00 36
20260904160903 72 157 13.0 26.0 0.00 0.00 0.00 35
20260904160003 72 144 13.0 26.0 0.00 0.00 0.00 35
20260904155403 72 151 11.0 27.0 0.00 0.00 0.00 35
20260904154503 72 159 11.0 25.0 0.00 0.00 0.00 35
20260904153603 71 153 12.0 25.0 0.00 0.00 0.00 35
20260904152703 71 150 10.0 23.0 0.00 0.00 0.00 35
20260904151803 70 153 11.0 25.0 0.00 0.00 0.00 35
20260904150903 70 152 10.0 20.0 0.00 0.00 0.00 35
20260904150003 70 156 9.0 20.0 0.00 0.00 0.00 33
20260904145403 70 149 9.0 21.0 0.00 0.00 0.00 33
20260904144503 69 158 9.0 25.0 0.00 0.00 0.00 34
20260904143603 69 156 8.0 26.0 0.00 0.00 0.00 34
20260904142703 68 157 8.0 17.0 0.00 0.00 0.00 33
20260904141803 68 155 8.0 17.0 0.00 0.00 0.00 32
20260904141114 67 148 10.0 17.0 0.00 0.00 0.00 32
20260904140003 66 145 7.0 21.0 0.00 0.00 0.00 31
20260904135613 66 146 7.0 14.0 0.00 0.00 0.00 31
20260904134714 66 149 7.0 18.0 0.00 0.00 0.00 30
20260904133603 65 154 6.0 15.0 0.00 0.00 0.00 31
20260904132703 66 152 6.0 17.0 0.00 0.00 0.00 32
20260904131803 66 162 5.0 21.0 0.00 0.00 0.00 33
20260904130903 66 154 8.0 21.0 0.00 0.00 0.00 33
20260904130003 66 146 7.0 14.0 0.00 0.00 0.00 34
20260904125403 66 147 7.0 14.0 0.00 0.00 0.00 34
20260904124714 66 147 6.0 14.0 0.00 0.00 0.00 36
20260904123603 66 140 7.0 16.0 0.00 0.00 0.00 38
20260904122703 67 147 8.0 20.0 0.00 0.00 0.00 41
20260904121803 67 144 9.0 22.0 0.00 0.00 0.00 41
20260904120903 67 148 8.0 16.0 0.00 0.00 0.00 42
20260904120003 67 146 10.0 25.0 0.00 0.00 0.00 44
20260904115403 67 147 9.0 25.0 0.00 0.00 0.00 44
20260904114503 67 146 8.0 15.0 0.00 0.00 0.00 45
20260904113603 68 146 9.0 18.0 0.00 0.00 0.00 44
20260904112703 68 147 7.0 20.0 0.00 0.00 0.00 45
20260904112013 68 148 7.0 20.0 0.00 0.00 0.00 45
20260904110903 68 145 9.0 17.0 0.00 0.00 0.00 46
20260904110003 68 141 9.0 16.0 0.00 0.00 0.00 46
20260904105403 68 140 9.0 20.0 0.00 0.00 0.00 46
20260904104713 68 146 9.0 22.0 0.00 0.00 0.00 46
20260904103603 68 141 9.0 23.0 0.00 0.00 0.00 46
20260904102703 68 145 7.0 15.0 0.00 0.00 0.00 46
20260904101803 68 142 8.0 16.0 0.00 0.00 0.00 45
20260904100903 68 142 8.0 20.0 0.00 0.00 0.00 45
20260904100003 69 145 10.0 20.0 0.00 0.00 0.00 45
20260904095403 69 149 9.0 18.0 0.00 0.00 0.00 44
20260904094503 68 163 8.0 17.0 0.00 0.00 0.00 44
20260904093603 68 163 8.0 17.0 0.00 0.00 0.00 45
20260904092703 69 156 8.0 18.0 0.00 0.00 0.00 46
20260904091803 69 155 9.0 27.0 0.00 0.00 0.00 46
20260904090903 69 153 9.0 17.0 0.00 0.00 0.00 45
20260904090004 69 148 8.0 20.0 0.00 0.00 0.00 44
20260904085403 69 150 8.0 16.0 0.00 0.00 0.00 44
20260904084503 69 147 8.0 17.0 0.00 0.00 0.00 44
20260904083603 70 146 10.0 21.0 0.00 0.00 0.00 43
20260904082703 70 147 11.0 27.0 0.00 0.00 0.00 43
20260904081803 69 144 8.0 23.0 0.00 0.00 0.00 41
20260904080903 69 155 8.0 17.0 0.00 0.00 0.00 39
20260904080003 69 156 8.0 18.0 0.00 0.00 0.00 37
20260904075403 69 162 8.0 17.0 0.00 0.00 0.00 36
20260904074503 69 163 8.0 16.0 0.00 0.00 0.00 33
20260904073603 69 161 7.0 18.0 0.00 0.00 0.00 31
20260904072703 68 162 7.0 16.0 0.00 0.00 0.00 30
20260904071803 69 167 7.0 15.0 0.00 0.00 0.00 29
20260904070903 69 166 8.0 18.0 0.00 0.00 0.00 28
20260904070003 69 168 9.0 16.0 0.00 0.00 0.00 27
20260904065403 69 165 9.0 17.0 0.00 0.00 0.00 26
20260904064503 69 174 8.0 22.0 0.00 0.00 0.00 25
20260904063603 69 170 9.0 16.0 0.00 0.00 0.00 24
20260904062703 69 172 8.0 20.0 0.00 0.00 0.00 23
20260904061803 69 169 8.0 20.0 0.00 0.00 0.00 22
20260904060903 70 169 7.0 16.0 0.00 0.00 0.00 22
20260904060007 70 167 8.0 21.0 0.00 0.00 0.00 21
20260904055614 70 164 7.0 21.0 0.00 0.00 0.00 21
20260904054503 70 160 6.0 13.0 0.00 0.00 0.00 20
20260904053603 70 157 6.0 13.0 0.00 0.00 0.00 19
20260904052703 70 159 7.0 16.0 0.00 0.00 0.00 19
20260904051803 70 155 6.0 15.0 0.00 0.00 0.00 18
20260904050903 71 144 6.0 13.0 0.00 0.00 0.00 18
20260904050214 71 156 7.0 19.0 0.00 0.00 0.00 18
20260904045613 71 154 7.0 15.0 0.00 0.00 0.00 18
20260904044503 71 146 5.0 14.0 0.00 0.00 0.00 17
20260904043814 71 148 7.0 15.0 0.00 0.00 0.00 17
20260904042913 71 138 6.0 14.0 0.00 0.00 0.00 16
20260904042013 71 139 5.0 14.0 0.00 0.00 0.00 17
20260904040903 71 141 6.0 12.0 0.00 0.00 0.00 16
20260904040003 71 145 5.0 11.0 0.00 0.00 0.00 16
20260904035403 71 140 5.0 14.0 0.00 0.00 0.00 17
20260904034503 71 138 4.0 11.0 0.00 0.00 0.00 17
20260904033603 71 133 3.0 10.0 0.00 0.00 0.00 18
20260904032913 71 133 3.0 6.0 0.00 0.00 0.00 18
20260904032014 71 126 2.0 6.0 0.00 0.00 0.00 19
20260904030903 71 140 2.0 6.0 0.00 0.00 0.00 18
20260904030003 72 137 2.0 5.0 0.00 0.00 0.00 18
20260904025403 72 116 3.0 6.0 0.00 0.00 0.00 18
20260904024503 72 122 3.0 10.0 0.00 0.00 0.00 17
20260904023813 70 134 3.0 10.0 0.00 0.00 0.00 17
20260904022703 70 177 1.0 5.0 0.00 0.00 0.00 18
20260904021803 71 169 0.0 2.0 0.00 0.00 0.00 18
20260904020903 72 176 2.0 7.0 0.00 0.00 0.00 17
20260904020003 73 187 4.0 11.0 0.00 0.00 0.00 16
20260904015403 73 184 4.0 13.0 0.00 0.00 0.00 16
20260904014504 74 197 5.0 12.0 0.00 0.00 0.00 16
20260904013603 75 197 6.0 16.0 0.00 0.00 0.00 16
20260904012703 76 193 8.0 18.0 0.00 0.00 0.00 16
20260904011803 76 188 6.0 18.0 0.00 0.00 0.00 16
20260904010903 77 181 8.0 20.0 0.00 0.00 0.00 16
20260904010214 78 190 6.0 15.0 0.00 0.00 0.00 16
20260904005403 78 183 7.0 17.0 0.00 0.00 0.00 16
20260904004503 79 180 8.0 18.0 0.00 0.00 0.00 17
20260904003603 79 158 7.0 21.0 0.00 0.00 0.00 16
20260904002703 79 166 7.0 13.0 0.00 0.00 0.00 16
20260904001803 80 168 8.0 19.0 0.00 0.00 0.00 16
20260904001112 80 167 9.0 21.0 0.00 0.00 0.00 17
20260904000003 80 177 10.0 20.0 0.00 0.00 0.00 16
20260903235403 80 185 11.0 21.0 0.00 0.00 0.00 16
20260903234503 80 196 10.0 23.0 0.00 0.00 0.00 17
20260903233814 80 194 9.0 19.0 0.00 0.00 0.00 16
20260903232703 80 183 11.0 25.0 0.00 0.00 0.00 16
20260903231803 80 197 10.0 20.0 0.00 0.00 0.00 17
20260903230903 80 202 11.0 23.0 0.00 0.00 0.00 17
20260903230003 81 190 10.0 24.0 0.00 0.00 0.00 17
20260903225403 81 186 10.0 22.0 0.00 0.00 0.00 17
20260903224503 82 164 9.0 21.0 0.00 0.00 0.00 17
20260903223603 81 179 11.0 22.0 0.00 0.00 0.00 17
20260903222704 81 193 12.0 22.0 0.00 0.00 0.00 17